[[{"header":{"parameterUnit":"m.s-1","parameterCategory":2,"la1":30.2991,"la2":30.254,"lo1":-89.0895,"lo2":-89.0444,"dy":0.0017,"dx":0.0017,"nx":28,"ny":28,"refTime":"2024-08-31T09:00:00:Z","depth":"0","parameterNumber":2,"parameterNumberName":"U-component_of_CURRENTS"},"data":[0,0,0,0,0,0,0,0,0,0,0,0,0,0,0,0,0,0,0,0,0,0,0,0,0,0,0,0,0,0,0,0,0,0,0,0,0,0,0,0,0,0,0,0,0,0,0,0,0,0,0,0,0,0,0,0,0,0,-0.2314,-0.2315,0,-0.2313,-0.2313,-0.2312,-0.223,-0.2228,-0.2226,-0.2224,-0.2147,-0.2147,-0.2147,0,0,0,0,0,0,0,0,0,0,0,0,0,-0.2225,-0.2227,-0.2314,-0.2315,-0.2315,-0.2313,-0.2313,-0.2312,-0.223,-0.2228,-0.2225,-0.2223,-0.2147,-0.2147,-0.2147,0,0,0,0,0,0,0,0,0,0,0,0,0,-0.2245,-0.2227,-0.2314,-0.2275,-0.2272,-0.2313,-0.2313,-0.2312,-0.223,-0.2228,-0.2225,-0.2222,-0.2147,-0.2147,-0.2147,-0.2202,0,0,-0.2145,-0.2145,0,0,0,0,0,0,0,0,-0.2244,-0.2248,-0.2281,-0.2278,-0.2275,-0.2271,-0.2253,-0.2273,-0.2231,-0.2243,-0.2224,-0.2221,-0.2186,-0.2182,-0.2185,-0.2198,-0.2195,-0.2145,-0.2145,-0.2145,-0.2145,0,0,0,0,0,0,0,-0.2243,-0.2248,-0.2311,-0.2281,-0.2278,-0.2251,-0.2251,-0.2256,-0.2227,-0.2242,-0.2237,-0.2242,-0.2182,-0.2186,-0.2183,-0.2194,-0.2145,-0.2145,-0.2145,-0.2145,-0.222,-0.2222,0,0,0,0,0,0,-0.2253,-0.2247,-0.2311,-0.2311,-0.2255,-0.2255,-0.2255,-0.2273,-0.2228,-0.222,-0.2244,-0.2238,-0.2188,-0.2183,-0.2179,-0.22,-0.2145,-0.2145,-0.2144,-0.2218,-0.222,-0.2223,0,0,0,0,0,0,-0.2252,-0.226,-0.2311,-0.228,-0.2285,-0.226,-0.2281,-0.2274,-0.2264,-0.2232,-0.2221,-0.2239,-0.2185,-0.218,-0.2188,-0.2197,-0.2144,-0.2144,-0.2215,-0.2218,-0.2221,-0.2267,0,0,0,0,0,0,-0.2249,-0.2259,-0.2271,-0.2281,-0.2287,-0.2336,-0.2284,-0.2276,-0.2273,-0.2265,-0.2224,-0.2215,-0.2183,-0.2189,-0.2187,-0.2196,-0.2144,-0.2212,-0.2216,-0.222,-0.2263,-0.2272,-0.2279,0,0,0,0,0,-0.2246,-0.228,-0.2272,-0.2279,-0.2306,-0.2338,-0.2338,-0.2308,-0.2276,-0.2285,-0.226,-0.2215,-0.2213,-0.2191,-0.2188,-0.2197,-0.221,-0.2215,-0.222,-0.2259,-0.227,-0.2279,0,0,0,0,0,0,-0.2261,-0.2276,-0.2267,-0.2306,-0.232,-0.2324,-0.2329,-0.2316,-0.2306,-0.2289,-0.2248,-0.2239,-0.2248,-0.2233,-0.2209,-0.2236,-0.2204,-0.2209,-0.2234,-0.2244,-0.2252,-0.2242,-0.2144,0,0,0,0,0,-0.2272,-0.2285,-0.2306,-0.2335,-0.2343,-0.2337,-0.2343,-0.2332,-0.2328,-0.2319,-0.2297,-0.2279,-0.2275,-0.2265,-0.2264,-0.2285,-0.2238,-0.2291,-0.2299,-0.2306,-0.2301,-0.2226,-0.2224,-0.2239,-0.2239,-0.2239,0,0,-0.2291,-0.2295,-0.2307,-0.2336,-0.2337,-0.2367,-0.2332,-0.235,-0.2368,-0.2316,-0.2327,-0.2309,-0.2291,-0.2306,-0.2308,-0.2287,-0.2288,-0.2312,-0.2318,-0.2308,-0.223,-0.2228,-0.2226,-0.2242,-0.2242,-0.2241,0,0,-0.2317,-0.2335,-0.2344,-0.2364,-0.2375,-0.2386,-0.2394,-0.2407,-0.2398,-0.2424,-0.2386,-0.2375,-0.2381,-0.2359,-0.235,-0.2411,-0.2337,-0.2417,-0.2439,-0.2367,-0.2364,-0.236,-0.2331,-0.2324,-0.2415,-0.2415,-0.2415,0,-0.2325,-0.2353,-0.2356,-0.2374,-0.239,-0.2398,-0.2423,-0.2442,-0.2455,-0.2438,-0.2431,-0.2407,-0.2402,-0.2387,-0.2419,-0.2423,-0.2382,-0.2396,-0.2372,-0.2367,-0.2362,-0.2332,-0.2324,-0.2418,-0.2418,-0.2417,-0.2417,0,-0.2355,-0.2384,-0.2397,-0.2417,-0.2441,-0.2473,-0.2501,-0.2516,-0.251,-0.2502,-0.2485,-0.2477,-0.2445,-0.2459,-0.2464,-0.2439,-0.2423,-0.2389,-0.2334,-0.2363,-0.2331,-0.2322,-0.2422,-0.2421,-0.242,-0.2419,0,0,-0.2334,-0.2401,-0.2402,-0.2413,-0.2466,-0.2482,-0.2527,-0.2541,-0.2517,-0.254,-0.2494,-0.2527,-0.2489,-0.2481,-0.247,-0.2433,-0.2399,-0.2411,-0.2406,-0.236,-0.2261,-0.2235,-0.2222,-0.2343,-0.2341,-0.234,-0.2262,0,-0.2341,-0.2385,-0.2419,-0.2465,-0.2489,-0.252,-0.2545,-0.2557,-0.2548,-0.2516,-0.2499,-0.2464,-0.2507,-0.2473,-0.2453,-0.2401,-0.2371,-0.2425,-0.2259,-0.2256,-0.2208,-0.2208,-0.2109,-0.2028,-0.2253,-0.2251,-0.225,0,-0.2335,-0.2364,-0.2412,-0.2456,-0.2463,-0.2496,-0.2491,-0.252,-0.2496,-0.2476,-0.2445,-0.2414,-0.2399,-0.2406,-0.234,-0.2367,-0.2332,-0.2295,-0.2289,-0.2234,-0.221,-0.2032,-0.2002,-0.1995,-0.2234,-0.2235,-0.2236,0,-0.2275,-0.2348,-0.238,-0.2405,-0.2464,-0.2469,-0.2497,-0.2488,-0.2463,-0.2437,-0.2381,-0.2359,-0.232,-0.2276,-0.2264,-0.2277,-0.2166,-0.2156,-0.2101,-0.21,-0.1968,-0.1958,-0.1884,-0.2082,-0.2082,-0.2083,-0.2083,0,-0.2252,-0.2269,-0.2354,-0.2366,-0.2352,-0.2427,-0.2384,-0.24,-0.2382,-0.2322,-0.2349,-0.2283,-0.2278,-0.2225,-0.222,-0.2145,-0.2127,-0.21,-0.2064,-0.199,-0.1983,-0.1933,-0.1956,-0.208,-0.208,-0.2081,-0.2081,0,-0.2159,-0.2236,-0.2247,-0.2312,-0.2319,-0.2301,-0.2306,-0.2264,-0.2291,-0.2211,-0.2197,-0.2198,-0.2149,-0.2143,-0.2068,-0.2067,-0.1963,-0.1979,-0.1927,-0.1887,-0.1828,-0.1857,-0.1739,-0.1695,-0.1885,-0.1884,-0.1883,0,-0.2111,-0.2124,-0.216,-0.2134,-0.2154,-0.215,-0.2121,-0.2184,-0.215,-0.2148,-0.2093,-0.2059,-0.2014,-0.1942,-0.1915,-0.1872,-0.1884,-0.1766,-0.1774,-0.1806,-0.1811,-0.1837,-0.1811,-0.1632,-0.1629,-0.1627,-0.1625,0,-0.1993,-0.2011,-0.1997,-0.1952,-0.1929,-0.1907,-0.1906,-0.1882,-0.1949,-0.1917,-0.1896,-0.1877,-0.1841,-0.1774,-0.1751,-0.171,-0.1718,-0.1713,-0.172,-0.159,-0.1631,-0.1577,-0.1751,-0.1602,-0.1605,-0.1606,-0.1608,-0.1608,-0.1854,-0.1796,-0.1779,-0.172,-0.1697,-0.1672,-0.1622,-0.1658,-0.1629,-0.1607,-0.1683,-0.1646,-0.1654,-0.1605,-0.1584,-0.1503,-0.1551,-0.1455,-0.1485,-0.1509,-0.1466,-0.1629,-0.1459,-0.146,-0.1462,-0.1463,-0.1464,0,-0.1656,-0.1615,-0.1551,-0.1485,-0.1417,-0.1475,-0.1458,-0.142,-0.1386,-0.1413,-0.1405,-0.1411,-0.1367,-0.1392,-0.1348,-0.1301,-0.1276,-0.127,-0.1267,-0.1248,-0.1343,-0.1333,-0.1158,-0.1158,-0.1158,-0.1158,-0.1158,-0.1158,-0.1541,-0.1416,-0.1393,-0.1233,-0.1199,-0.1094,-0.1074,-0.1067,-0.1077,-0.106,-0.1079,-0.1124,-0.1191,-0.1301,-0.1252,-0.1194,-0.1186,-0.1132,-0.1185,-0.1255,-0.1275,-0.1295,-0.1289,-0.1107,-0.1107,-0.1024,-0.1023,-0.1023]},{"header":{"parameterUnit":"m.s-1","parameterCategory":2,"la1":30.2991,"la2":30.254,"lo1":-89.0895,"lo2":-89.0444,"dy":0.0017,"dx":0.0017,"nx":28,"ny":28,"refTime":"2024-08-31T09:00:00:Z","depth":"0","parameterNumber":3,"parameterNumberName":"V-component_of_CURRENTS"},"data":[0,0,0,0,0,0,0,0,0,0,0,0,0,0,0,0,0,0,0,0,0,0,0,0,0,0,0,0,0,0,0,0,0,0,0,0,0,0,0,0,0,0,0,0,0,0,0,0,0,0,0,0,0,0,0,0,0,0,-0.0304,-0.0303,0,-0.0211,-0.021,-0.0209,-0.0163,-0.0163,-0.0163,-0.0163,-0.0037,-0.0034,-0.003,0,0,0,0,0,0,0,0,0,0,0,0,0,-0.0377,-0.0377,-0.0304,-0.0303,-0.0302,-0.0211,-0.021,-0.0208,-0.0163,-0.0163,-0.0163,-0.0163,-0.0038,-0.0034,-0.003,0,0,0,0,0,0,0,0,0,0,0,0,0,-0.0321,-0.0377,-0.0305,-0.0269,-0.0265,-0.0211,-0.021,-0.0208,-0.0163,-0.0163,-0.0163,-0.0163,-0.004,-0.0035,-0.003,0.0003,0,0,-0.0014,-0.0012,0,0,0,0,0,0,0,0,-0.0324,-0.0318,-0.0275,-0.0271,-0.0266,-0.0199,-0.0189,-0.0136,-0.0163,-0.0201,-0.0163,-0.0163,-0.0088,-0.0079,-0.0062,0.0009,0.0014,-0.0014,-0.0011,-0.0008,-0.0007,0,0,0,0,0,0,0,-0.0328,-0.0322,-0.0267,-0.0274,-0.0269,-0.0235,-0.0227,-0.0179,-0.0145,-0.0198,-0.0194,-0.0184,-0.0086,-0.0067,-0.0058,0.0016,-0.0014,-0.0009,-0.0006,-0.0004,0.0127,0.0127,0,0,0,0,0,0,-0.0344,-0.0326,-0.027,-0.0264,-0.0296,-0.0234,-0.0225,-0.022,-0.0146,-0.0135,-0.0185,-0.0183,-0.0075,-0.0064,-0.0054,-0.0023,-0.0008,-0.0004,-0.0001,0.0126,0.0127,0.0127,0,0,0,0,0,0,-0.0346,-0.034,-0.0274,-0.0293,-0.0282,-0.0233,-0.0227,-0.0218,-0.02,-0.0136,-0.0125,-0.0176,-0.0075,-0.0061,-0.0009,-0.0018,-0.0001,0.0003,0.0126,0.0126,0.0127,0.0046,0,0,0,0,0,0,-0.0348,-0.0341,-0.0345,-0.0294,-0.0282,-0.0248,-0.0227,-0.0216,-0.0194,-0.0191,-0.0125,-0.0113,-0.0074,-0.0017,-0.0004,-0.001,0.0007,0.0125,0.0126,0.0127,0.0048,0.0043,0.004,0,0,0,0,0,-0.0351,-0.0357,-0.0346,-0.034,-0.0288,-0.0248,-0.0238,-0.0203,-0.0194,-0.0187,-0.014,-0.0115,-0.0003,-0.0013,0.0002,-0.0002,0.0125,0.0126,0.0127,0.005,0.0044,0.004,0,0,0,0,0,0,-0.0391,-0.0351,-0.0339,-0.0333,-0.0296,-0.024,-0.023,-0.0207,-0.0164,-0.0161,-0.0105,-0.0089,-0.0049,-0.0008,-0.002,0.004,0.0063,0.0067,-0.0,-0.0005,-0.0009,-0.0032,0.0012,0,0,0,0,0,-0.0403,-0.0397,-0.0351,-0.0346,-0.033,-0.0282,-0.0262,-0.0237,-0.0192,-0.0174,-0.0128,-0.0077,-0.0032,-0.0006,0.0042,0.0078,0.0113,0.0085,0.0081,0.0077,0.007,0.0117,0.0116,0.013,0.013,0.013,0,0,-0.042,-0.0395,-0.0393,-0.0354,-0.0323,-0.0306,-0.027,-0.0243,-0.0231,-0.0166,-0.0135,-0.0087,-0.0024,0.0012,0.0034,0.0044,0.0092,0.0078,0.0074,0.007,0.0118,0.0116,0.0115,0.0131,0.0131,0.0131,0,0,-0.0443,-0.0425,-0.0426,-0.0399,-0.0356,-0.0325,-0.0321,-0.0267,-0.0247,-0.0206,-0.0162,-0.0121,-0.0046,-0.0011,0.0018,0.0024,0.0069,0.0042,0.0002,0.0046,0.0045,0.0044,0.0082,0.0085,0.0039,0.0039,0.0039,0,-0.0464,-0.0462,-0.0419,-0.0408,-0.0397,-0.034,-0.0339,-0.0304,-0.0242,-0.0227,-0.0206,-0.0108,-0.0061,-0.0021,-0.0022,0.0011,0.0046,0.0009,0.0038,0.0039,0.0039,0.0078,0.0083,0.0035,0.0035,0.0036,0.0036,0,-0.0484,-0.0484,-0.048,-0.0454,-0.0431,-0.0422,-0.0372,-0.0348,-0.0316,-0.028,-0.0232,-0.0163,-0.0109,-0.0088,-0.0053,-0.0027,-0.0001,0.0025,0.0042,0.0032,0.0075,0.0081,0.0029,0.0031,0.0032,0.0033,0,0,-0.0538,-0.0504,-0.0507,-0.0509,-0.0461,-0.0446,-0.0424,-0.039,-0.0375,-0.0318,-0.0296,-0.0229,-0.0192,-0.0157,-0.0107,-0.007,-0.0041,-0.0029,-0.0024,-0.0007,0.0056,0.0102,0.0114,-0.0009,-0.0009,-0.0008,0.0082,0,-0.0574,-0.058,-0.0548,-0.0559,-0.0562,-0.051,-0.0493,-0.0451,-0.0402,-0.0361,-0.0299,-0.0249,-0.0217,-0.0187,-0.0151,-0.0056,-0.0027,-0.0068,0.0077,0.0082,0.0111,0.0122,0.0149,0.0234,0.0088,0.0089,0.009,0,-0.0614,-0.0614,-0.0631,-0.062,-0.0615,-0.0608,-0.0574,-0.055,-0.0476,-0.0437,-0.0384,-0.0313,-0.0252,-0.0218,-0.0096,-0.0121,-0.005,0.0017,0.0023,0.0098,0.014,0.0224,0.0251,0.0366,0.01,0.0099,0.0098,0,-0.0684,-0.0681,-0.0702,-0.0697,-0.0663,-0.0664,-0.0647,-0.058,-0.0548,-0.0481,-0.0435,-0.0358,-0.0296,-0.0207,-0.007,-0.0078,0.0074,0.0085,0.0187,0.0192,0.026,0.0269,0.0402,0.0158,0.0157,0.0157,0.0157,0,-0.0744,-0.0763,-0.0739,-0.075,-0.0769,-0.0728,-0.0721,-0.0686,-0.0616,-0.0568,-0.0483,-0.0416,-0.0286,-0.0173,-0.0077,0.0082,0.007,0.0183,0.0221,0.0233,0.0238,0.0379,0.041,0.0161,0.016,0.0159,0.0159,0,-0.0809,-0.0795,-0.0817,-0.0802,-0.0799,-0.0813,-0.0769,-0.0747,-0.0682,-0.0612,-0.0586,-0.0447,-0.0297,-0.0158,0.0011,0.0092,0.0302,0.0281,0.0284,0.0321,0.0514,0.0539,0.0695,0.0758,0.0405,0.0407,0.0408,0,-0.084,-0.0859,-0.0858,-0.0861,-0.0855,-0.086,-0.0846,-0.0793,-0.0749,-0.0619,-0.0578,-0.042,-0.0286,-0.0029,0.0143,0.0325,0.039,0.0446,0.0432,0.0535,0.0591,0.0602,0.0644,0.049,0.0492,0.0494,0.0495,0,-0.0897,-0.0892,-0.0895,-0.0903,-0.0903,-0.0901,-0.0876,-0.0847,-0.0759,-0.0677,-0.0535,-0.0419,-0.0163,0.0075,0.0304,0.0402,0.053,0.0486,0.06,0.0674,0.0689,0.0765,0.0414,0.051,0.0509,0.0507,0.0507,0.0506,-0.0922,-0.0931,-0.0923,-0.0928,-0.093,-0.0918,-0.0899,-0.083,-0.0753,-0.0579,-0.051,-0.0294,0.0017,0.0357,0.0475,0.0725,0.0674,0.079,0.0812,0.0816,0.0876,0.0553,0.0687,0.0686,0.0686,0.0686,0.0685,0,-0.0936,-0.0932,-0.0942,-0.0941,-0.0943,-0.0939,-0.0886,-0.082,-0.0701,-0.0533,-0.0377,-0.0015,0.03,0.0575,0.0913,0.1047,0.1061,0.1101,0.1125,0.1153,0.0886,0.089,0.1066,0.1066,0.1065,0.1065,0.1065,0.1065,-0.0935,-0.0936,-0.0934,-0.0939,-0.0939,-0.0913,-0.0873,-0.0742,-0.0601,-0.03,-0.0067,0.0097,0.0466,0.1006,0.1323,0.1336,0.1445,0.1424,0.1486,0.1302,0.1274,0.1248,0.1262,0.1513,0.1513,0.1749,0.1751,0.1753]}],[{"header":{"parameterUnit":"m.s-1","parameterCategory":2,"la1":30.2991,"la2":30.254,"lo1":-89.0895,"lo2":-89.0444,"dy":0.0017,"dx":0.0017,"nx":28,"ny":28,"refTime":"2024-08-31T09:00:00:Z","depth":"2","parameterNumber":2,"parameterNumberName":"U-component_of_CURRENTS"},"data":[0,0,0,0,0,0,0,0,0,0,0,0,0,0,0,0,0,0,0,0,0,0,0,0,0,0,0,0,0,0,0,0,0,0,0,0,0,0,0,0,0,0,0,0,0,0,0,0,0,0,0,0,0,0,0,0,0,0,-0.1811,-0.1812,0,-0.1815,-0.1814,-0.1814,-0.1767,-0.1766,-0.1765,-0.1764,-0.1752,-0.1753,-0.1753,0,0,0,0,0,0,0,0,0,0,0,0,0,-0.1727,-0.1729,-0.1811,-0.1812,-0.1812,-0.1815,-0.1814,-0.1814,-0.1767,-0.1766,-0.1765,-0.1764,-0.1752,-0.1753,-0.1753,0,0,0,0,0,0,0,0,0,0,0,0,0,-0.1747,-0.1729,-0.1811,-0.1792,-0.179,-0.1815,-0.1814,-0.1814,-0.1767,-0.1766,-0.1764,-0.1763,-0.1752,-0.1753,-0.1753,-0.1787,0,0,-0.1756,-0.1756,0,0,0,0,0,0,0,0,-0.1746,-0.1749,-0.1794,-0.1793,-0.1791,-0.1792,-0.178,-0.1805,-0.1768,-0.1772,-0.1764,-0.1762,-0.1768,-0.1767,-0.1766,-0.1786,-0.1786,-0.1756,-0.1756,-0.1757,-0.1757,0,0,0,0,0,0,0,-0.1744,-0.1749,-0.1809,-0.1795,-0.1793,-0.177,-0.1772,-0.1785,-0.1774,-0.1771,-0.1769,-0.1776,-0.1766,-0.1765,-0.1765,-0.1785,-0.1756,-0.1757,-0.1757,-0.1758,-0.1822,-0.1823,0,0,0,0,0,0,-0.1756,-0.1748,-0.1809,-0.1809,-0.1769,-0.1774,-0.1775,-0.179,-0.1775,-0.1772,-0.1777,-0.1774,-0.1764,-0.1764,-0.1764,-0.1796,-0.1757,-0.1758,-0.1758,-0.182,-0.1822,-0.1823,0,0,0,0,0,0,-0.1754,-0.1761,-0.1809,-0.1781,-0.1786,-0.1777,-0.1795,-0.1791,-0.1794,-0.178,-0.1776,-0.1784,-0.1763,-0.1763,-0.178,-0.1795,-0.1758,-0.1759,-0.1819,-0.1821,-0.1822,-0.1864,0,0,0,0,0,0,-0.1752,-0.1761,-0.1769,-0.1782,-0.1788,-0.1822,-0.1796,-0.1792,-0.1802,-0.1798,-0.1785,-0.1782,-0.1762,-0.1779,-0.1781,-0.1796,-0.1759,-0.1817,-0.182,-0.1822,-0.1861,-0.1867,-0.1872,0,0,0,0,0,-0.1749,-0.1766,-0.177,-0.1777,-0.1803,-0.1823,-0.1824,-0.1809,-0.1804,-0.1806,-0.1803,-0.1782,-0.1794,-0.1781,-0.1783,-0.1798,-0.1816,-0.1819,-0.1822,-0.1859,-0.1866,-0.1872,0,0,0,0,0,0,-0.174,-0.1764,-0.1768,-0.1794,-0.1809,-0.1816,-0.1823,-0.1822,-0.1823,-0.1819,-0.1803,-0.1801,-0.1818,-0.1811,-0.1797,-0.1824,-0.1801,-0.1804,-0.1828,-0.1835,-0.1841,-0.1833,-0.176,0,0,0,0,0,-0.1745,-0.1763,-0.1784,-0.1809,-0.1818,-0.1826,-0.1833,-0.1828,-0.1835,-0.1833,-0.1826,-0.1824,-0.1833,-0.1836,-0.1836,-0.186,-0.1832,-0.1871,-0.1876,-0.1881,-0.1877,-0.1843,-0.1845,-0.1832,-0.1832,-0.1832,0,0,-0.175,-0.1769,-0.1778,-0.1807,-0.182,-0.1834,-0.1826,-0.1844,-0.1853,-0.1835,-0.1844,-0.1845,-0.1845,-0.186,-0.1868,-0.1855,-0.1873,-0.1884,-0.1888,-0.1881,-0.1846,-0.1847,-0.1848,-0.1834,-0.1833,-0.1833,0,0,-0.1765,-0.1789,-0.18,-0.1814,-0.1837,-0.1848,-0.1859,-0.1871,-0.187,-0.1892,-0.1878,-0.1888,-0.1904,-0.1897,-0.19,-0.1942,-0.1903,-0.1948,-0.197,-0.1938,-0.1938,-0.1938,-0.1914,-0.1911,-0.1951,-0.1951,-0.1951,0,-0.1772,-0.1787,-0.1808,-0.1821,-0.1835,-0.1858,-0.1871,-0.1884,-0.1896,-0.1904,-0.1898,-0.1916,-0.1918,-0.1934,-0.1949,-0.1953,-0.1929,-0.1943,-0.1943,-0.1942,-0.1941,-0.1916,-0.1912,-0.1953,-0.1953,-0.1953,-0.1952,0,-0.1776,-0.1797,-0.1811,-0.1836,-0.1856,-0.1876,-0.19,-0.1915,-0.193,-0.1938,-0.1957,-0.1956,-0.1965,-0.1973,-0.1979,-0.1982,-0.1967,-0.1951,-0.1921,-0.1944,-0.1918,-0.1913,-0.1957,-0.1956,-0.1955,-0.1954,0,0,-0.1785,-0.1806,-0.1808,-0.1821,-0.1863,-0.188,-0.1913,-0.1943,-0.1956,-0.1972,-0.1979,-0.2009,-0.2009,-0.2013,-0.2013,-0.1994,-0.1981,-0.1978,-0.1975,-0.1945,-0.1913,-0.1872,-0.1863,-0.196,-0.1959,-0.1959,-0.1901,0,-0.1785,-0.1787,-0.1808,-0.1838,-0.1854,-0.1891,-0.1921,-0.1952,-0.1974,-0.1985,-0.1997,-0.2004,-0.2026,-0.2024,-0.2018,-0.1984,-0.1969,-0.1998,-0.1903,-0.19,-0.1853,-0.1856,-0.1716,-0.165,-0.1896,-0.1896,-0.1895,0,-0.1793,-0.1785,-0.1786,-0.1838,-0.1848,-0.187,-0.1916,-0.1947,-0.1982,-0.1995,-0.2013,-0.2014,-0.2017,-0.2013,-0.1976,-0.1993,-0.1965,-0.1934,-0.193,-0.187,-0.185,-0.1665,-0.1632,-0.1886,-0.1887,-0.1888,-0.1888,0,-0.1766,-0.1799,-0.179,-0.1799,-0.1839,-0.1857,-0.1897,-0.1944,-0.1962,-0.1991,-0.1986,-0.2003,-0.1987,-0.1963,-0.194,-0.1949,-0.1873,-0.1871,-0.1808,-0.1805,-0.1655,-0.164,-0.1831,-0.1831,-0.1831,-0.1831,-0.1831,0,-0.1753,-0.1751,-0.1774,-0.1752,-0.1773,-0.1834,-0.1859,-0.1899,-0.1936,-0.1939,-0.1985,-0.1961,-0.1969,-0.1937,-0.1922,-0.1854,-0.1863,-0.1805,-0.1782,-0.1669,-0.1657,-0.1836,-0.1838,-0.1829,-0.1829,-0.183,-0.183,0,-0.1693,-0.1708,-0.1712,-0.1736,-0.1753,-0.1767,-0.1827,-0.1835,-0.1891,-0.1884,-0.1886,-0.1914,-0.1875,-0.1874,-0.1821,-0.1811,-0.1757,-0.1731,-0.1609,-0.1573,-0.1716,-0.1721,-0.1645,-0.1643,-0.1642,-0.164,-0.1639,0,-0.163,-0.1629,-0.1666,-0.1664,-0.1662,-0.1697,-0.1712,-0.1795,-0.1801,-0.1839,-0.1813,-0.18,-0.1767,-0.1704,-0.1667,-0.1621,-0.1686,-0.1479,-0.1474,-0.1709,-0.1695,-0.1702,-0.1709,-0.1295,-0.1291,-0.1288,-0.1285,0,-0.1514,-0.1554,-0.1536,-0.1539,-0.1552,-0.1572,-0.1603,-0.1608,-0.1688,-0.1683,-0.1663,-0.1644,-0.1603,-0.1499,-0.1469,-0.1424,-0.1481,-0.1413,-0.1655,-0.1378,-0.1377,-0.1365,-0.1382,-0.1257,-0.1259,-0.1261,-0.1263,-0.1264,-0.1429,-0.1403,-0.1408,-0.1404,-0.1423,-0.1421,-0.1402,-0.144,-0.1439,-0.1415,-0.1475,-0.1407,-0.1414,-0.1283,-0.1231,-0.1193,-0.1292,-0.1241,-0.1251,-0.1264,-0.1248,-0.1246,-0.1098,-0.11,-0.1101,-0.1103,-0.1104,0,-0.1297,-0.1286,-0.1271,-0.1263,-0.1233,-0.1288,-0.1295,-0.1258,-0.1216,-0.1227,-0.12,-0.1075,-0.1023,-0.104,-0.0941,-0.0941,-0.093,-0.0903,-0.0887,-0.0914,-0.0939,-0.0908,-0.0666,-0.0665,-0.0664,-0.0663,0,0,-0.1234,-0.1168,-0.1156,-0.1066,-0.1062,-0.0986,-0.0966,-0.0941,-0.0933,-0.0868,-0.0838,-0.0913,-0.0976,-0.081,-0.0785,-0.071,-0.0798,-0.0667,-0.1012,-0.1016,-0.1039,-0.1122,-0.1102,0,0,0,0,0]},{"header":{"parameterUnit":"m.s-1","parameterCategory":2,"la1":30.2991,"la2":30.254,"lo1":-89.0895,"lo2":-89.0444,"dy":0.0017,"dx":0.0017,"nx":28,"ny":28,"refTime":"2024-08-31T09:00:00:Z","depth":"2","parameterNumber":3,"parameterNumberName":"V-component_of_CURRENTS"},"data":[0,0,0,0,0,0,0,0,0,0,0,0,0,0,0,0,0,0,0,0,0,0,0,0,0,0,0,0,0,0,0,0,0,0,0,0,0,0,0,0,0,0,0,0,0,0,0,0,0,0,0,0,0,0,0,0,0,0,-0.018,-0.018,0,-0.0108,-0.0108,-0.0107,-0.0066,-0.0066,-0.0066,-0.0066,0.0046,0.0048,0.0051,0,0,0,0,0,0,0,0,0,0,0,0,0,-0.0227,-0.0227,-0.018,-0.0179,-0.0179,-0.0109,-0.0108,-0.0107,-0.0066,-0.0066,-0.0066,-0.0066,0.0045,0.0048,0.0051,0,0,0,0,0,0,0,0,0,0,0,0,0,-0.0187,-0.0227,-0.0181,-0.015,-0.0146,-0.0109,-0.0108,-0.0106,-0.0066,-0.0066,-0.0066,-0.0066,0.0044,0.0048,0.0052,0.0074,0,0,0.0065,0.0067,0,0,0,0,0,0,0,0,-0.0189,-0.0185,-0.0155,-0.0152,-0.0148,-0.0096,-0.0083,-0.0044,-0.0066,-0.0097,-0.0066,-0.0065,0.0002,0.0009,0.0022,0.0079,0.0084,0.0065,0.0068,0.007,0.0071,0,0,0,0,0,0,0,-0.0192,-0.0187,-0.0152,-0.0154,-0.015,-0.0121,-0.0115,-0.0076,-0.0049,-0.0094,-0.0091,-0.0083,0.0004,0.0018,0.0025,0.0086,0.0065,0.0069,0.0071,0.0073,0.0182,0.0182,0,0,0,0,0,0,-0.0204,-0.019,-0.0154,-0.015,-0.0168,-0.012,-0.0114,-0.0113,-0.005,-0.004,-0.0083,-0.0081,0.001,0.002,0.0029,0.0059,0.007,0.0074,0.0076,0.0181,0.0182,0.0182,0,0,0,0,0,0,-0.0205,-0.0202,-0.0157,-0.0168,-0.016,-0.012,-0.0119,-0.0112,-0.0099,-0.0042,-0.0032,-0.0078,0.0011,0.0023,0.0067,0.0064,0.0075,0.0079,0.0181,0.0181,0.0182,0.012,0,0,0,0,0,0,-0.0207,-0.0203,-0.0208,-0.0169,-0.016,-0.0138,-0.0119,-0.011,-0.0094,-0.0091,-0.0034,-0.0024,0.0012,0.006,0.0071,0.007,0.0083,0.018,0.0181,0.0182,0.0122,0.0118,0.0116,0,0,0,0,0,-0.0209,-0.0218,-0.0209,-0.0205,-0.0169,-0.0138,-0.0131,-0.0101,-0.0094,-0.0089,-0.0049,-0.0025,0.0072,0.0064,0.0076,0.0077,0.018,0.0181,0.0182,0.0123,0.0119,0.0116,0,0,0,0,0,0,-0.0241,-0.0214,-0.0203,-0.0204,-0.0175,-0.0132,-0.0127,-0.0106,-0.0071,-0.0069,-0.0018,-0.0005,0.0031,0.0066,0.0056,0.0111,0.0129,0.0132,0.008,0.0077,0.0074,0.0061,0.0086,0,0,0,0,0,-0.0252,-0.0255,-0.0217,-0.0219,-0.0206,-0.0168,-0.0154,-0.0132,-0.0095,-0.0081,-0.004,0.0005,0.0044,0.0069,0.0109,0.0141,0.0171,0.015,0.0147,0.0144,0.0144,0.0184,0.0184,0.0184,0.0184,0.0184,0,0,-0.0267,-0.0252,-0.0253,-0.0226,-0.0203,-0.0187,-0.0159,-0.014,-0.0125,-0.0073,-0.0043,-0.0005,0.005,0.0084,0.0104,0.0113,0.016,0.0145,0.0142,0.0144,0.0185,0.0185,0.0185,0.0185,0.0185,0.0185,0,0,-0.0291,-0.0282,-0.0287,-0.0265,-0.0233,-0.0207,-0.0204,-0.016,-0.0141,-0.0106,-0.0067,-0.003,0.0032,0.0069,0.0096,0.0103,0.0139,0.0115,0.0092,0.0131,0.0131,0.0132,0.0162,0.0165,0.0116,0.0115,0.0115,0,-0.031,-0.031,-0.0283,-0.0276,-0.0263,-0.0219,-0.0215,-0.0186,-0.0134,-0.0117,-0.0104,-0.0017,0.0025,0.0069,0.007,0.0095,0.012,0.0097,0.0125,0.0126,0.0128,0.0159,0.0164,0.0113,0.0113,0.0113,0.0113,0,-0.0329,-0.0328,-0.0329,-0.0309,-0.029,-0.028,-0.0236,-0.0214,-0.0187,-0.0155,-0.011,-0.0052,-0.0002,0.0016,0.0046,0.0078,0.0093,0.0111,0.0128,0.0124,0.0157,0.0163,0.0108,0.0109,0.011,0.0111,0,0,-0.0385,-0.035,-0.0352,-0.0348,-0.0308,-0.0296,-0.0271,-0.0235,-0.022,-0.0171,-0.0147,-0.0083,-0.0056,-0.0023,0.0018,0.0055,0.0083,0.0082,0.0086,0.0101,0.0163,0.019,0.02,0.0104,0.0105,0.0105,0.0178,0,-0.0411,-0.0407,-0.038,-0.038,-0.0377,-0.0332,-0.0313,-0.0274,-0.0234,-0.0198,-0.014,-0.01,-0.0069,-0.0048,-0.0009,0.0066,0.0097,0.0061,0.0175,0.0179,0.0195,0.0207,0.0185,0.025,0.0185,0.0186,0.0186,0,-0.0452,-0.0438,-0.0438,-0.0418,-0.0412,-0.0403,-0.0369,-0.0346,-0.0282,-0.025,-0.0202,-0.015,-0.0088,-0.0064,0.0048,0.0023,0.0082,0.0138,0.0142,0.0195,0.0218,0.0248,0.0263,0.0197,0.0196,0.0195,0.0195,0,-0.0511,-0.0493,-0.0494,-0.0485,-0.0443,-0.0439,-0.0422,-0.0368,-0.0346,-0.0286,-0.0255,-0.018,-0.0132,-0.0051,0.0062,0.0055,0.0188,0.0195,0.0274,0.0276,0.0294,0.0297,0.0265,0.0265,0.0265,0.0265,0.0265,0,-0.0558,-0.0563,-0.0524,-0.0521,-0.0533,-0.0491,-0.049,-0.0457,-0.0402,-0.0368,-0.0293,-0.0242,-0.0125,-0.003,0.0056,0.0189,0.0183,0.0275,0.0301,0.0272,0.0272,0.0258,0.0256,0.0268,0.0267,0.0266,0.0266,0,-0.0618,-0.059,-0.0597,-0.0564,-0.0561,-0.0573,-0.0544,-0.0531,-0.0473,-0.0423,-0.0404,-0.0283,-0.0155,-0.0032,0.0115,0.019,0.0307,0.035,0.0305,0.0326,0.0366,0.036,0.0443,0.0445,0.0446,0.0447,0.0448,0,-0.0638,-0.0648,-0.064,-0.0649,-0.0636,-0.064,-0.0636,-0.0584,-0.0553,-0.0438,-0.0408,-0.0278,-0.0166,0.0057,0.0204,0.0361,0.0353,0.0426,0.0413,0.0369,0.0387,0.0379,0.0371,0.0409,0.0409,0.041,0.041,0,-0.0681,-0.0686,-0.0684,-0.0703,-0.0712,-0.0714,-0.0695,-0.0674,-0.0588,-0.0519,-0.0394,-0.0298,-0.0081,0.0101,0.0296,0.0377,0.0399,0.0442,0.0422,0.0366,0.0343,0.0358,0.035,0.0414,0.0414,0.0414,0.0413,0.0413,-0.0719,-0.0735,-0.0739,-0.0757,-0.0769,-0.0761,-0.075,-0.0686,-0.062,-0.0469,-0.0395,-0.0217,-0.0061,0.0236,0.0359,0.0469,0.0466,0.049,0.0486,0.0482,0.0465,0.0445,0.0532,0.0532,0.0532,0.0532,0.0533,0,-0.0753,-0.0765,-0.0787,-0.0802,-0.0816,-0.0808,-0.0762,-0.0706,-0.0599,-0.0452,-0.0316,-0.0121,0.0079,0.0237,0.0426,0.0534,0.0506,0.0536,0.0481,0.0476,0.0472,0.0452,0.0517,0.0517,0.0518,0.0518,0,0,-0.0772,-0.0798,-0.08,-0.0828,-0.0837,-0.0825,-0.0789,-0.0675,-0.0549,-0.0371,-0.0229,-0.0074,0.0109,0.024,0.0359,0.0451,0.0431,0.0448,0.0449,0.0364,0.0359,0.0435,0.0397,0,0,0,0,0]}],[{"header":{"parameterUnit":"m.s-1","parameterCategory":2,"la1":30.2991,"la2":30.254,"lo1":-89.0895,"lo2":-89.0444,"dy":0.0017,"dx":0.0017,"nx":28,"ny":28,"refTime":"2024-08-31T09:00:00:Z","depth":"4","parameterNumber":2,"parameterNumberName":"U-component_of_CURRENTS"},"data":[0,0,0,0,0,0,0,0,0,0,0,0,0,0,0,0,0,0,0,0,0,0,0,0,0,0,0,0,0,0,0,0,0,0,0,0,0,0,0,0,0,0,0,0,0,0,0,0,0,0,0,0,0,0,0,0,0,0,-0.101,-0.1011,0,-0.1057,-0.1058,-0.1058,-0.1097,-0.1098,-0.1098,-0.1098,-0.1099,-0.1099,-0.1098,0,0,0,0,0,0,0,0,0,0,0,0,0,-0.0937,-0.0938,-0.101,-0.1011,-0.1011,-0.1057,-0.1058,-0.1058,-0.1097,-0.1098,-0.1098,-0.1098,-0.1099,-0.1099,-0.1098,0,0,0,0,0,0,0,0,0,0,0,0,0,-0.0976,-0.0938,-0.101,-0.1035,-0.1038,-0.1057,-0.1058,-0.1059,-0.1097,-0.1098,-0.1098,-0.1098,-0.1099,-0.1099,-0.1098,-0.1087,0,0,-0.1097,-0.1097,0,0,0,0,0,0,0,0,-0.0974,-0.0979,-0.1031,-0.1033,-0.1036,-0.1071,-0.1032,-0.1065,-0.1097,-0.1076,-0.1098,-0.1099,-0.1084,-0.1085,-0.1095,-0.1087,-0.1087,-0.1097,-0.1097,-0.1097,-0.1097,0,0,0,0,0,0,0,-0.0971,-0.0977,-0.103,-0.1031,-0.1035,-0.1038,-0.1044,-0.1039,-0.1077,-0.1078,-0.108,-0.1083,-0.1085,-0.1095,-0.1095,-0.1087,-0.1097,-0.1097,-0.1096,-0.1096,-0.1136,-0.1137,0,0,0,0,0,0,-0.0963,-0.0974,-0.1029,-0.1031,-0.1004,-0.1039,-0.1046,-0.106,-0.1078,-0.1081,-0.1083,-0.1085,-0.1096,-0.1096,-0.1095,-0.113,-0.1097,-0.1096,-0.1096,-0.1134,-0.1136,-0.1137,0,0,0,0,0,0,-0.0962,-0.0968,-0.1027,-0.1002,-0.101,-0.1039,-0.1055,-0.1061,-0.1089,-0.1082,-0.1085,-0.1107,-0.1096,-0.1096,-0.111,-0.1128,-0.1096,-0.1096,-0.1133,-0.1135,-0.1137,-0.1168,0,0,0,0,0,0,-0.096,-0.0967,-0.0983,-0.1002,-0.1011,-0.1044,-0.1055,-0.1061,-0.1088,-0.1092,-0.1103,-0.1103,-0.1097,-0.111,-0.1109,-0.1127,-0.1095,-0.1131,-0.1134,-0.1136,-0.1165,-0.117,-0.1175,0,0,0,0,0,-0.0957,-0.0972,-0.0984,-0.099,-0.1029,-0.1044,-0.1049,-0.1072,-0.1089,-0.11,-0.1115,-0.1104,-0.1125,-0.1111,-0.1109,-0.1127,-0.113,-0.1133,-0.1136,-0.1163,-0.1169,-0.1175,0,0,0,0,0,0,-0.0939,-0.0978,-0.0991,-0.1015,-0.1031,-0.105,-0.1068,-0.1082,-0.1104,-0.1116,-0.1113,-0.1114,-0.1134,-0.1129,-0.1113,-0.1149,-0.1128,-0.1131,-0.115,-0.1156,-0.1161,-0.1171,-0.1095,0,0,0,0,0,-0.0943,-0.0973,-0.0995,-0.1014,-0.1029,-0.1053,-0.1067,-0.1081,-0.1098,-0.1111,-0.1121,-0.1134,-0.1142,-0.1148,-0.1152,-0.1165,-0.1164,-0.118,-0.1185,-0.1189,-0.1198,-0.1232,-0.1241,-0.1147,-0.1147,-0.1147,0,0,-0.094,-0.0965,-0.0981,-0.1014,-0.1036,-0.1056,-0.1064,-0.1089,-0.1109,-0.1104,-0.1143,-0.115,-0.1151,-0.117,-0.118,-0.1169,-0.121,-0.1192,-0.1196,-0.1203,-0.1236,-0.1246,-0.1254,-0.1149,-0.1148,-0.1148,0,0,-0.0945,-0.0976,-0.1003,-0.1023,-0.1056,-0.1067,-0.1078,-0.111,-0.1131,-0.1156,-0.1166,-0.1189,-0.1198,-0.121,-0.1213,-0.1249,-0.1236,-0.1252,-0.1284,-0.1317,-0.1325,-0.1332,-0.1316,-0.1321,-0.1254,-0.1255,-0.1255,0,-0.094,-0.0979,-0.1008,-0.1037,-0.1059,-0.1076,-0.1102,-0.112,-0.115,-0.1174,-0.1172,-0.1224,-0.1218,-0.1253,-0.1265,-0.1259,-0.1263,-0.1257,-0.1323,-0.133,-0.1337,-0.1319,-0.1325,-0.1256,-0.1256,-0.1256,-0.1256,0,-0.0961,-0.0999,-0.1016,-0.1064,-0.1086,-0.111,-0.1137,-0.1165,-0.119,-0.121,-0.1259,-0.1265,-0.1297,-0.13,-0.1288,-0.1339,-0.1319,-0.1324,-0.1305,-0.1348,-0.1326,-0.1332,-0.1259,-0.1258,-0.1258,-0.1257,0,0,-0.0913,-0.1017,-0.1021,-0.1062,-0.1107,-0.1128,-0.1164,-0.1203,-0.1245,-0.127,-0.1325,-0.134,-0.1358,-0.1364,-0.1365,-0.1392,-0.1423,-0.138,-0.1381,-0.1359,-0.1468,-0.1357,-0.1352,-0.1446,-0.1448,-0.1449,-0.1423,0,-0.0917,-0.1001,-0.1038,-0.1095,-0.1137,-0.1172,-0.1206,-0.1245,-0.1281,-0.1334,-0.1356,-0.1401,-0.1377,-0.1404,-0.1425,-0.1432,-0.1444,-0.1428,-0.1435,-0.1434,-0.1327,-0.1357,-0.1455,-0.1427,-0.1428,-0.1429,-0.143,0,-0.0894,-0.097,-0.1053,-0.1142,-0.1163,-0.1194,-0.127,-0.1302,-0.1366,-0.1399,-0.1447,-0.1468,-0.1503,-0.1486,-0.151,-0.1504,-0.1489,-0.1487,-0.1486,-0.1379,-0.1335,-0.1383,-0.1439,-0.1439,-0.1438,-0.1437,-0.1437,0,-0.0851,-0.0951,-0.1034,-0.1066,-0.1176,-0.1217,-0.1258,-0.1327,-0.137,-0.1449,-0.1487,-0.1535,-0.1556,-0.1571,-0.154,-0.1541,-0.1557,-0.1556,-0.1437,-0.1427,-0.152,-0.1513,-0.1581,-0.1581,-0.1581,-0.1581,-0.1581,0,-0.0828,-0.0881,-0.103,-0.1083,-0.1164,-0.1224,-0.1305,-0.1351,-0.1425,-0.1464,-0.1521,-0.1542,-0.1585,-0.1587,-0.1566,-0.1498,-0.1571,-0.1443,-0.1423,-0.1528,-0.1523,-0.1521,-0.1514,-0.158,-0.158,-0.1581,-0.1581,0,-0.077,-0.0868,-0.0967,-0.1114,-0.1156,-0.1215,-0.1328,-0.1371,-0.1442,-0.1495,-0.1519,-0.1561,-0.1543,-0.1555,-0.156,-0.1506,-0.1475,-0.1433,-0.1514,-0.1499,-0.1314,-0.131,-0.1306,-0.1302,-0.1299,-0.1296,-0.1294,0,-0.0767,-0.0807,-0.099,-0.1053,-0.1128,-0.1227,-0.1278,-0.1371,-0.1406,-0.1474,-0.1475,-0.1497,-0.1503,-0.1405,-0.1434,-0.1389,-0.1372,-0.1351,-0.1362,-0.131,-0.1292,-0.1293,-0.1293,-0.1289,-0.1288,-0.1287,-0.1286,0,-0.0733,-0.0792,-0.09,-0.1033,-0.1115,-0.1194,-0.1268,-0.1291,-0.1362,-0.1447,-0.1394,-0.1373,-0.1342,-0.1318,-0.1288,-0.126,-0.1372,-0.1316,-0.1323,-0.1333,-0.1289,-0.1274,-0.1278,-0.1275,-0.1276,-0.1277,-0.1278,0,-0.0695,-0.0761,-0.0885,-0.099,-0.108,-0.1107,-0.1175,-0.1192,-0.1233,-0.1301,-0.1272,-0.1275,-0.1312,-0.1248,-0.122,-0.1185,-0.1172,-0.1149,-0.1165,-0.1178,-0.115,-0.1075,-0.098,0,0,0,0,0,-0.0653,-0.0712,-0.0816,-0.0929,-0.1,-0.1034,-0.113,-0.1187,-0.1265,-0.1193,-0.1229,-0.1184,-0.1128,-0.1135,-0.107,-0.1171,-0.1186,-0.1093,-0.1172,-0.1211,-0.1224,-0.1204,0,0,0,0,0,0,-0.0617,-0.0715,-0.0795,-0.0822,-0.0859,-0.0913,-0.096,-0.1021,-0.0994,-0.1075,-0.1045,-0.1106,-0.1068,-0.1125,-0.1034,-0.1039,-0.1067,-0.111,-0.1108,-0.1204,-0.1216,-0.1226,-0.1209,0,0,0,0,0]},{"header":{"parameterUnit":"m.s-1","parameterCategory":2,"la1":30.2991,"la2":30.254,"lo1":-89.0895,"lo2":-89.0444,"dy":0.0017,"dx":0.0017,"nx":28,"ny":28,"refTime":"2024-08-31T09:00:00:Z","depth":"4","parameterNumber":3,"parameterNumberName":"V-component_of_CURRENTS"},"data":[0,0,0,0,0,0,0,0,0,0,0,0,0,0,0,0,0,0,0,0,0,0,0,0,0,0,0,0,0,0,0,0,0,0,0,0,0,0,0,0,0,0,0,0,0,0,0,0,0,0,0,0,0,0,0,0,0,0,-0.0085,-0.0085,0,-0.0049,-0.0048,-0.0048,-0.002,-0.002,-0.0019,-0.0019,0.0052,0.0053,0.0055,0,0,0,0,0,0,0,0,0,0,0,0,0,-0.0088,-0.0088,-0.0085,-0.0085,-0.0084,-0.0049,-0.0048,-0.0048,-0.002,-0.002,-0.0019,-0.0019,0.0051,0.0053,0.0055,0,0,0,0,0,0,0,0,0,0,0,0,0,-0.0073,-0.0088,-0.0085,-0.0066,-0.0064,-0.0049,-0.0048,-0.0048,-0.002,-0.002,-0.0019,-0.0019,0.005,0.0053,0.0055,0.0061,0,0,0.0062,0.0064,0,0,0,0,0,0,0,0,-0.0074,-0.0073,-0.0069,-0.0067,-0.0065,-0.0038,-0.0023,-0.0009,-0.002,-0.0037,-0.0019,-0.0018,0.0025,0.0029,0.0034,0.0065,0.0068,0.0063,0.0064,0.0065,0.0066,0,0,0,0,0,0,0,-0.0075,-0.0074,-0.0071,-0.0069,-0.0066,-0.0044,-0.0042,-0.0021,-0.0009,-0.0035,-0.0033,-0.0029,0.0026,0.0032,0.0036,0.0069,0.0063,0.0065,0.0066,0.0067,0.0127,0.0127,0,0,0,0,0,0,-0.0082,-0.0075,-0.0072,-0.007,-0.0068,-0.0045,-0.0042,-0.0047,-0.0009,-0.0003,-0.0029,-0.0028,0.0027,0.0033,0.0039,0.0061,0.0065,0.0067,0.0069,0.0127,0.0127,0.0128,0,0,0,0,0,0,-0.0082,-0.0082,-0.0073,-0.0071,-0.0068,-0.0045,-0.0051,-0.0047,-0.004,-0.0005,0.0002,-0.0027,0.0028,0.0035,0.006,0.0064,0.0068,0.0071,0.0127,0.0127,0.0127,0.0098,0,0,0,0,0,0,-0.0083,-0.0083,-0.009,-0.0072,-0.0069,-0.0067,-0.0051,-0.0046,-0.0038,-0.0036,-0.0001,0.0006,0.0029,0.0056,0.0062,0.0067,0.0073,0.0127,0.0127,0.0127,0.0099,0.0097,0.0096,0,0,0,0,0,-0.0083,-0.0097,-0.0091,-0.0091,-0.0079,-0.0067,-0.0063,-0.0045,-0.0039,-0.0038,-0.0012,0.0005,0.0062,0.0058,0.0065,0.0071,0.0127,0.0127,0.0127,0.0099,0.0097,0.0096,0,0,0,0,0,0,-0.0099,-0.0094,-0.0088,-0.0099,-0.0084,-0.0062,-0.0062,-0.0049,-0.003,-0.0027,0.0006,0.0014,0.0035,0.0057,0.0051,0.0089,0.0098,0.01,0.0074,0.0072,0.0071,0.0069,0.0075,0,0,0,0,0,-0.0108,-0.012,-0.0102,-0.0111,-0.0105,-0.0085,-0.0078,-0.0065,-0.0045,-0.0037,-0.0011,0.0018,0.0041,0.006,0.0081,0.0103,0.0126,0.0112,0.0111,0.0109,0.0113,0.015,0.0152,0.0129,0.0129,0.0129,0,0,-0.0118,-0.0116,-0.0123,-0.0116,-0.0104,-0.0097,-0.008,-0.0073,-0.0063,-0.0031,-0.0013,0.0009,0.0044,0.0067,0.0079,0.0088,0.0126,0.011,0.0108,0.0113,0.0151,0.0153,0.0155,0.0129,0.0129,0.0129,0,0,-0.0138,-0.014,-0.0153,-0.0143,-0.0128,-0.0112,-0.0112,-0.0089,-0.0075,-0.0057,-0.0031,-0.0004,0.003,0.0062,0.0081,0.0085,0.0111,0.0089,0.0088,0.0124,0.0126,0.0128,0.015,0.0154,0.0095,0.0095,0.0095,0,-0.0147,-0.0161,-0.0152,-0.0154,-0.0146,-0.0121,-0.012,-0.0102,-0.0074,-0.0058,-0.0054,0.0003,0.003,0.0071,0.0072,0.0083,0.01,0.009,0.0122,0.0124,0.0127,0.0149,0.0154,0.0094,0.0094,0.0094,0.0094,0,-0.0171,-0.0177,-0.0182,-0.0177,-0.0167,-0.0165,-0.0137,-0.0123,-0.0105,-0.0081,-0.0046,-0.0009,0.0029,0.0041,0.0058,0.0094,0.0097,0.0108,0.0124,0.0128,0.015,0.0156,0.0092,0.0092,0.0093,0.0093,0,0,-0.0194,-0.02,-0.02,-0.0201,-0.018,-0.0175,-0.0156,-0.0128,-0.0114,-0.0081,-0.0056,-0.001,0.0012,0.0035,0.0064,0.0099,0.0129,0.011,0.0112,0.0127,0.0196,0.0182,0.0187,0.0143,0.0144,0.0145,0.02,0,-0.021,-0.0232,-0.0221,-0.0225,-0.0227,-0.0197,-0.0181,-0.0151,-0.0123,-0.0094,-0.0043,-0.0015,0.001,0.0024,0.0065,0.0111,0.0146,0.0113,0.0194,0.0197,0.0181,0.0194,0.0149,0.0204,0.0206,0.0207,0.0208,0,-0.0228,-0.024,-0.0259,-0.025,-0.0246,-0.0244,-0.0214,-0.0196,-0.0143,-0.012,-0.0074,-0.0038,0.002,0.0034,0.0127,0.0103,0.0148,0.0184,0.0188,0.0191,0.0194,0.0204,0.0219,0.0218,0.0217,0.0217,0.0216,0,-0.0255,-0.0259,-0.0282,-0.028,-0.0266,-0.0265,-0.0252,-0.0208,-0.0192,-0.014,-0.0122,-0.0048,-0.0014,0.0057,0.0136,0.013,0.0233,0.0237,0.0269,0.0268,0.0277,0.0275,0.0305,0.0305,0.0305,0.0305,0.0305,0,-0.0277,-0.0289,-0.0301,-0.0314,-0.033,-0.0299,-0.0303,-0.0275,-0.0232,-0.0207,-0.0143,-0.0105,-0.0008,0.0064,0.0134,0.022,0.0236,0.0273,0.0286,0.0262,0.0257,0.0281,0.0278,0.0307,0.0307,0.0306,0.0306,0,-0.0305,-0.0315,-0.0339,-0.0344,-0.0351,-0.0363,-0.0356,-0.0349,-0.0298,-0.0264,-0.0249,-0.015,-0.0054,0.0043,0.0161,0.0211,0.0296,0.0324,0.0284,0.0293,0.0306,0.03,0.0361,0.0361,0.0361,0.0361,0.0361,0,-0.0325,-0.0341,-0.0381,-0.041,-0.042,-0.0435,-0.0444,-0.0399,-0.0376,-0.0285,-0.0261,-0.0167,-0.0094,0.0065,0.0162,0.0291,0.0309,0.0345,0.0333,0.0307,0.0314,0.0308,0.0303,0.0361,0.0361,0.0361,0.0361,0,-0.0351,-0.0371,-0.0406,-0.047,-0.05,-0.0516,-0.0511,-0.0493,-0.0415,-0.038,-0.0263,-0.0166,-0.0057,0.0065,0.0163,0.0258,0.0316,0.0346,0.0346,0.0336,0.0308,0.0314,0.0308,0.0361,0.0361,0.0361,0.0361,0,-0.0374,-0.0418,-0.0472,-0.0524,-0.0565,-0.0566,-0.056,-0.0505,-0.0466,-0.0337,-0.0304,-0.0168,-0.0086,0.0049,0.0144,0.0229,0.0247,0.0268,0.0273,0.0274,0.023,0.0181,0.0212,0,0,0,0,0,-0.0388,-0.0449,-0.0515,-0.0572,-0.0607,-0.0618,-0.0587,-0.0557,-0.0476,-0.04,-0.034,-0.023,-0.0066,0.001,0.0092,0.0124,0.0242,0.022,0.0263,0.0362,0.0362,0.0324,0,0,0,0,0,0,-0.04,-0.0477,-0.0527,-0.0588,-0.0626,-0.0647,-0.0621,-0.0567,-0.0499,-0.041,-0.032,-0.024,-0.0085,-0.0129,0.0078,0.0107,0.0142,0.0305,0.0306,0.0362,0.0362,0.0362,0.0323,0,0,0,0,0]}]]